Other Surface Observations
Issued by NWS

Home | Current Version | Previous Version | Text Only | Print | Product List | Glossary On
Versions: 1 2 3 4 5 6 7 8 9 10 11 12 13 14 15 16 17 18 19 20 21 22 23 24 25 26 27 28 29 30 31 32 33 34 35 36 37 38 39 40 41 42 43 44 45 46 47 48 49 50
000
SXUS52 KTAE 272105
OSOTAE
OSOTAE
North Florida/South Alabama/Southwest Georgia Weather Roundup
National Weather Service Tallahassee Florida
500 PM EDT WED AUG 27 2014

Note: "fair" indicates few or no clouds below 12,000 feet with no
significant weather and/or obstructions to visibility.

!FLZ017-115-028-034-025-272200
...North Florida...

CITY           SKY/WX    TMP DP  RH WIND       PRES   REMARKS
TALLAHASSEE    MOSUNNY   94  60  32 NE9       29.96F HX  94
APALACHICOLA   SUNNY     87  69  54 S13       29.97F HX  91
PERRY          PTSUNNY   88  61  40 NE6       29.97S
CROSS CITY       N/A     90  62  39 N8        29.96F HX  90
HOMERVILLE     FAIR      91  59  33 NW7       29.97F HX  90
JACKSONVILLE   MOSUNNY   86  64  47 NE6       29.97S
$$

!FLZ112-006-005-002-011-272200
...Florida Panhandle...

CITY           SKY/WX    TMP DP  RH WIND       PRES   REMARKS
MARIANNA       SUNNY     92  64  39 N7        29.96F HX  93
BONIFAY        FAIR      92  64  39 NE6       29.98F HX  93
PANAMA CITY NW FAIR      95  64  35 N7        29.96F HX  97
TYNDALL AFB    MOSUNNY   89  71  56 SW10      29.98F HX  94
TYND DRONE APT MOCLDY    87  73  61 S13       29.96F HX  94
DE FUNIAK SPR  FAIR      91  63  39 N5        29.99F HX  91
EGLIN AFB      MOSUNNY   89  70  54 SW8       29.98F HX  93
DESTIN         SUNNY     88  70  55 S9        29.97F HX  93
HURLBURT       NOT AVBL
CRESTVIEW      MOSUNNY   95  63  34 NW5       29.99F HX  96
PENSACOLA      SUNNY     87  67  51 SE8       29.98F HX  90
$$

!ALZ063-066-272200
...South Alabama...

CITY           SKY/WX    TMP DP  RH WIND       PRES   REMARKS
DOTHAN         MOSUNNY   93  60  33 NE8       30.02F HX  93
OZARK CAIRNS   MOSUNNY   94  61  33 N7        29.99F HX  94
FT RUCKER HELI MOSUNNY   89  61  38 NE6       29.98F
RUCKER HELI 3  FAIR      92  60  34 N9G15     30.01F HX  92
RUCKER HELI 2  FAIR      94  60  32 N10       29.99F HX  94
FLORALA APT    MOSUNNY   94  64  37 NE8       30.00F HX  95
ANDALUSIA      SUNNY     97  60  29 NE8       29.99F HX  97
TROY           SUNNY     92  60  34 NE7       30.01F HX  91
EUFALA         FAIR      94  57  28 VRB5      29.98F HX  92
MOBILE         PTSUNNY   89  73  59 S10       29.99F HX  97
$$

!GAZ120>161-272200
...Southwest and South Central Georgia...

CITY           SKY/WX    TMP DP  RH WIND       PRES   REMARKS
THOMASVILLE    FAIR      91  59  33 N8        29.99F HX  90
BAINBRIDGE     MOSUNNY   95  63  34 N10       29.97F HX  96
MOODY AFB      SUNNY     90  60  36 VRB3      29.98F
VALDOSTA       MOSUNNY   90  60  36 N9        29.97F
MOULTRIE       MOSUNNY   90  59  35 N5        29.99F
BLAKELY        PTSUNNY   95  61  31 N7          N/A  HX  95
ALBANY         MOSUNNY   90  62  39 N8        29.99F HX  90
TIFTON         FAIR      90  50  25 N7        29.98F
FITZGERALD     FAIR      92  48  22 N6        30.00F
CORDELE        FAIR      93  49  21 N10       29.99F HX  90
AMERICUS       FAIR      91  54  27 NE8       30.01S
$$

!GMZ750-755-770-775-272200
...Coastal and Buoy Obs...

STATION/POSITION TIME  TEMP    WIND        PRES    VSBY  WAVE
                       AIR SEA DIR/SP/G                  HT/PER
                 (UTC) (F)     (DEG/KT/KT) (MB)    (MI)  (FT/S)
KEATON BEACH     2100   88      50/  6/  8 1014.5F
CEDAR KEY        2000   86     200/  5/  6 1014.9F
C TOWER          2100   83     100/  9/  9 1015.1F
APALACHICOLA BUO 2100   83 87   50/ 10/ 12 1014.8F         3/ 5
PANAMA CITY BUOY NOT AVBL
MOBILE BUOY      2050   85 86  100/ 16/ 19 1015.5F
ORANGE BCH AL BU 2100   84 86  130/ 10/ 12 1015.5F         3/ 6
$$



USA.gov is the U.S. government's official web portal to all federal, state and local government web resources and services.